Regional Weather Roundup
Issued by NWS Kansas City/Pleasant Hill, MO

Home | Current Version | Previous Version | Text Only | Print | Product List | Glossary On
Versions: 1 2 3 4 5 6 7 8 9 10 11 12 13 14 15 16 17 18 19 20 21 22 23 24 25 26 27 28 29 30 31 32 33 34 35 36 37 38 39 40 41 42 43 44 45 46 47 48 49 50
000
ASUS43 KEAX 250610
RWREAX

WEATHER ROUNDUP FOR EASTERN KANSAS AND NORTHWEST MISSOURI
NATIONAL WEATHER SERVICE KANSAS CITY/PLEASANT HILL MO
100 AM CDT MON JUL 25 2016

KSZ040-057-103>105-MOZ028-029-037-043-250700-
...KANSAS CITY METROPOLITAN AREA...

CITY           SKY/WX    TMP DP  RH WIND       PRES   REMARKS
K.C. INTL      CLOUDY    78  70  76 NE8       29.99F
6HR MIN TEMP:  77; 6HR MAX TEMP:  86; 6HR PCP: TRACE;

K.C. DOWNTOWN  MOCLDY    82  70  66 NE7       29.96F
6HR MIN TEMP:  82; 6HR MAX TEMP:  90;

LEES SUMMIT    CLOUDY    76  70  82 N5        29.99F
6HR MIN TEMP:  76; 6HR MAX TEMP:  90; 6HR PCP: TRACE;

OLATHE - IXD   MOCLDY    80  73  79 NE3       29.99S
6HR MIN TEMP:  80; 6HR MAX TEMP:  88;

OLATHE - OJC   MOCLDY    78  71  79 E3        29.99S
6HR MIN TEMP:  78; 6HR MAX TEMP:  89;

LAWRENCE       CLOUDY    76  71  85 NE5       29.98F

$$

MOZ001>008-011>017-020>025-030>033-038>040-044>046-053-054-250700-
...NORTHERN AND CENTRAL MISSOURI...

CITY           SKY/WX    TMP DP  RH WIND       PRES   REMARKS
ST. JOSEPH     CLEAR     70  67  90 NE6       30.03R
6HR MIN TEMP:  70; 6HR MAX TEMP:  81;

MOSBY          CLOUDY    77  70  78 N6        29.99S
WHITEMAN AFB   MOCLDY    71  71 100 N5        29.94F
6HR MIN TEMP:  69; 6HR MAX TEMP:  92; 6HR PCP:  0.54;

CLINTON        CLOUDY    75  70  83 SE3       29.94F
SEDALIA        CLOUDY    73  70  90 E3        29.97F
6HR MIN TEMP:  72; 6HR MAX TEMP:  90; 6HR PCP:  0.21;

WARSAW         NOT AVBL
CHILLICOTHE      N/A     77  71  82 VRB6      30.00F
6HR MIN TEMP:  77; 6HR MAX TEMP:  87;

KIRKSVILLE     CLOUDY    76  69  79 N7        30.03R
6HR MIN TEMP:  75; 6HR MAX TEMP:  81;


$$

MOZ041-047>049-056>058-063>065-088>090-097-250700-
...EASTERN AND SOUTHERN MISSOURI...

CITY           SKY/WX    TMP DP  RH WIND       PRES   REMARKS
ST. LOUIS INTL TSTM      78  72  81 N8        29.98F
6HR MIN TEMP:  78; 6HR MAX TEMP:  96; 6HR PCP:  0.16;

SPIRIT OF STL  CLOUDY    80  73  79 E9        29.95F
COLUMBIA       LGT RAIN  73  70  90 W13       30.00F
JEFFERSON CITY TSTM      75  73  93 S14       30.03R FOG
ROLLA          CLOUDY    81  76  84 VRB5      29.96F
OSAGE BEACH    CLOUDY    82  79  90 NE7       29.99R HX  92
SPRINGFIELD    CLEAR     81  75  82 S6        29.97F
BRANSON        MOCLDY    77  72  83 CALM      30.02R
JOPLIN         CLOUDY    81  74  79 S7        29.97F
WEST PLAINS    PTCLDY    77  73  87 CALM      30.01S

$$

IAZ060-094-KSZ022-034>040-054-083-096-NEZ052-066-093-250700-
...KANSAS...SOUTHEAST NEBRASKA AND IOWA...

CITY           SKY/WX    TMP DP  RH WIND       PRES   REMARKS
TOPEKA         CLOUDY    78  69  73 E6        29.99F
6HR MIN TEMP:  77; 6HR MAX TEMP:  84;

MANHATTAN      PTCLDY    73  67  81 NE5       30.00F
EMPORIA        PTCLDY    78  71  79 N8        30.00S
CHANUTE        CLOUDY    83  74  74 CALM      29.96S
WICHITA        CLOUDY    86  71  60 CALM      29.97F THUNDER HX  91
OMAHA          CLOUDY    71  66  84 N7        30.06R
LINCOLN        MOCLDY    72  65  78 NW3       30.09R
FALLS CITY     PTCLDY    70  66  87 CALM      30.03S
LAMONI         CLOUDY    73  68  84 NE7       30.03S
DES MOINES     PTCLDY    74  64  71 N6        30.04R

$$




USA.gov is the U.S. government's official web portal to all federal, state and local government web resources and services.